Погода в Проточном

Россия / Астраханская область     45°53′28″N   47°17′57″E
темп.,
°C
ветер,
м/с
пор.,
м/с
влажн.,
%
обл.,
%
осадки,
мм/ч
давл.,
гПа
погр.,
м
28 января, чт
чт2801:00+2вюв81669100 0.0 1013514
04:00+1вюв91672100 0.0 1011483
07:00+1вюв91677100 0.0 1009450
10:00+3вюв91572100 0.0 1008550
13:00+7юв111562100 0.0 1006804
16:00+7юв91367100 0.0 1004684
19:00+4юв3387100 0.0 100694
22:00+2юв1195100 0.0 100622
29 января, пт
пт2901:00+4сз61084100 0.0 1008348
04:00+2сз7128199 0.0 1009354
07:00+2сз51182100 0.0 1010321
10:00+3сз71082100 0.0 1011434
13:00+5сз81168100 0.0 1012700
16:00+6ссз795667 0.0 1012769
19:00+3сз377260 0.0 1014197
22:00+2зсз337477 0.0 101648
30 января, сб
сб3001:00+1вюв117986 0.0 101522
04:000ссв118643 0.0 101522
07:00+1вюв337998 0.0 101527
10:00+2юв336684 0.0 1016126
13:00+5юв334769 0.0 1015451
16:00+6юв344279 0.0 1014545
19:00+3юв466113 0.0 1015126
22:00+1вюв48757 0.0 1015224
31 января, вс
вс3101:000вюв48860 0.0 1013208
04:00−1вюв59870 0.0 1012259
07:00−1вюв59870 0.0 1010253
10:000юв578117 0.0 1011273
13:00+4ююв4569100 0.0 1011406
16:00+6ююв4471100 0.0 1012419
19:00+3ююв3387100 0.0 101447
22:00+3ю4492100 0.0 101692
1 февраля, пн
пн101:00+3юз458955 0.0 101780
04:00+2юз348859 0.0 101853
07:00+2зсз2288100 0.0 101822
10:00+4вюв3381100 0.0 102079
13:00+7юв5869100 0.0 1020367
16:00+8юв687194 0.0 1019554
19:00+5юв5108795 0.0 1019311
22:00+4юв5109198 0.0 1019285